Погода в Жодишках

Беларусь     54°37′28″N   26°26′34″E
В апреле 2022 года жителям России запретили посещать сайт meteo.paraplan.net по решению Генеральной прокуратуры. Аудитория сайта уменьшилась в 10 раз. Владельцы сайта не видят смысла в поддержке погодного сервера в таких условиях. Сайт будет закрыт в октябре.
темп.,
°C
ветер,
м/с
пор.,
м/с
влажн.,
%
обл.,
%
осадки,
мм/ч
давл.,
гПа
погр.,
м
3 октября, пн
пн300:00+6ссз3892100 0.0 1004265
03:00+6ссз41087100 0.0 1002440
06:00+6ссз51185100 0.0 1001611
09:00+6сз71291100 0.7 999972
12:00+6сз81490100 1.2 9981117
15:00+5сз81696100 7.2 9981260
18:00+4сз81797100 4.9 9981224
21:00+4сз81697100 9.1 9981179
4 октября, вт
вт400:00+4сз71597100 4.3 9981143
03:00+5сз71397100 6.3 9991106
06:00+5сз61297100 0.8 1000938
09:00+6сз61095100 1.0 1002920
12:00+6сз51393100 0.6 10041136
15:00+6сз51194100 1.9 10061179
18:00+7зсз31096100 1.1 1008909
21:00+8сз6138599 1.3 1010953
5 октября, ср
ср500:00+7зсз61388100 0.0 1013792
03:00+6зсз51296100 0.0 1015424
06:00+5зсз3109732 0.0 1017287
09:00+7зюз3892100 0.0 1018244
12:00+8юз4991100 0.0 1018338
15:00+13зюз51079100 0.0 1017794
18:00+12юз51184100 0.0 1017546
21:00+11юз5128498 0.0 1017450
6 октября, чт
чт600:00+11юз41183100 0.0 1018393
03:00+11юз4118393 0.0 1017326
06:00+9юз4109137 0.0 1016231
09:00+10юз412865 0.0 1016341
12:00+15з611695 0.0 1017644
15:00+14з6137521 0.0 10191112
18:00+13зсз612660 0.0 1021993
21:00+11з513770 0.0 1023749
7 октября, пт
пт700:00+9з513889 0.0 1025637
03:00+10з61081100 0.0 1025858
06:00+11з597198 0.0 1025993
09:00+10зюз5118084 0.0 1025604
12:00+13з686847 0.0 10261016
15:00+15зюз576014 0.0 10251273
18:00+12юз37735 0.0 1024179
21:00+9юз39838 0.0 1024160